User: anonymous   Login
Location: Killarney Provincial Park Observatory
(46.0124°N, 81.4000°W)
Time: 01:50:00
(UTC-05:00)
Language:

Iridium 22 - Orbit

View from above orbital plane
View from above orbital plane
View from above satellite
View from above satellite

Ground track
Ground track

The orbit data is extracted from the following two-line orbital elements,

1 24907U 97043E   15058.56180603  .00000138  00000-0  42282-4 0  9997
2 24907 086.3934 247.3676 0001959 091.9849 324.5411 14.34216427917344
Epoch (UTC): 27 February 2015 13:29:00
Eccentricity: 0.0001959
inclination: 86.3934°
perigee height: 776 km
apogee height: 779 km
right ascension of ascending node: 247.3676°
argument of perigee: 91.9849°
revolutions per day: 14.34216427
mean anomaly at epoch: 324.5411°
orbit number at epoch: 91734

The dashed part of the orbit path shows where the satellite is in the earth's shadow,  

DLR